Location: Marsån
(66.4167°N, 22.2833°E)
Time: 11:12:52
(UTC+00:00)

Cosmos 2061 Rocket - Pass Details

Date: 24 February 2024
Orbit: 966 x 1011 km, 82.9° (Epoch: 15 April)

Event Time Altitude Azimuth Distance (km) Brightness Sun altitude
Rises 16:59:53 0° 193° (SSW) 3,662 7.2 -10.2°
Reaches altitude 10° 17:02:23 10° 193° (SSW) 2,714 6.5 -10.5°
Maximum altitude 17:08:36 88° 106° (ESE) 979 4.0 -11.1°
Drops below altitude 10° 17:14:52 10° 18° (NNE) 2,724 6.2 -11.7°
Sets 17:17:22 0° 18° (NNE) 3,676 6.9 -12.0°
